When you browse on this site, cookies collect data to enhance your experience and personalize the content and advertising you see.
Visit our Privacy Policy to learn more. By continuing to use the site, you agree to this use of cookies and data.
  • In Latvia
  • List of Countries
  • For 7 days
  • Water Temperature
  • Weather Map
  • Weather Widgets
  • user-avatar
    Login

    Hourly Weather Uige

    Today, 1 June, Monday

    Time Temperature Precipitation Wind Pressure Humidity
    00:00 +21°C° 0 mm 0 mps 692 mmHg 77%
    01:00 +22°C° 0 mm 1 mps 692 mmHg 81%
    02:00 +20°C° 0 mm 0 mps 692 mmHg 83%
    03:00 +20°C° 0 mm 0 mps 692 mmHg 85%
    04:00 +19°C° 0 mm 0 mps 691 mmHg 87%
    05:00 +20°C° 0 mm 0 mps 692 mmHg 85%
    06:00 +20°C° 0 mm 0 mps 692 mmHg 84%
    07:00 +20°C° 0 mm 0 mps 693 mmHg 85%
    08:00 +23°C° 0 mm 0 mps 694 mmHg 73%
    09:00 +28°C° 0 mm 1 mps 694 mmHg 61%
    10:00 +31°C° 0 mm 1 mps 694 mmHg 50%
    11:00 +32°C° 0 mm 1 mps 694 mmHg 45%
    12:00 +33°C° 0 mm 1 mps 693 mmHg 40%
    13:00 +34°C° 0 mm 1 mps 693 mmHg 35%
    14:00 +33°C° 0 mm 1 mps 692 mmHg 40%
    15:00 +31°C° 0 mm 1 mps 691 mmHg 46%
    16:00 +30°C° 0 mm 1 mps 691 mmHg 52%
    17:00 +29°C° 0.1 mm 1 mps 691 mmHg 58%
    18:00 +27°C° 0.1 mm 1 mps 692 mmHg 64%
    19:00 +26°C° 0.1 mm 1 mps 692 mmHg 71%
    20:00 +23°C° 0.4 mm 0 mps 692 mmHg 76%
    21:00 +22°C° 0.4 mm 0 mps 692 mmHg 82%
    22:00 +21°C° 0.4 mm 0 mps 692 mmHg 87%
    23:00 +20°C° 0 mm 0 mps 692 mmHg 90%

    Tomorrow, 2 June, Tuesday

    Time Temperature Precipitation Wind Pressure Humidity
    00:00 +20°C° 0 mm 0 mps 692 mmHg 93%
    01:00 +20°C° 0 mm 0 mps 692 mmHg 95%
    02:00 +19°C° 0 mm 0 mps 692 mmHg 96%
    03:00 +19°C° 0 mm 0 mps 692 mmHg 97%
    04:00 +21°C° 0 mm 1 mps 692 mmHg 98%
    05:00 +21°C° 0 mm 1 mps 692 mmHg 97%
    06:00 +22°C° 0 mm 1 mps 693 mmHg 95%
    07:00 +22°C° 0 mm 1 mps 693 mmHg 93%
    08:00 +24°C° 0 mm 1 mps 693 mmHg 80%
    09:00 +27°C° 0 mm 1 mps 694 mmHg 68%
    10:00 +29°C° 0 mm 1 mps 694 mmHg 56%
    11:00 +31°C° 0 mm 1 mps 694 mmHg 49%
    12:00 +32°C° 0 mm 1 mps 693 mmHg 42%
    13:00 +34°C° 0 mm 1 mps 693 mmHg 34%
    14:00 +33°C° 0 mm 1 mps 692 mmHg 38%
    15:00 +32°C° 0 mm 1 mps 691 mmHg 42%
    16:00 +31°C° 0 mm 1 mps 691 mmHg 46%
    17:00 +29°C° 0 mm 1 mps 691 mmHg 55%
    18:00 +27°C° 0 mm 1 mps 691 mmHg 64%
    19:00 +25°C° 0 mm 1 mps 691 mmHg 73%
    20:00 +22°C° 0.1 mm 0 mps 691 mmHg 78%
    21:00 +22°C° 0.1 mm 0 mps 692 mmHg 82%
    22:00 +21°C° 0.1 mm 0 mps 692 mmHg 87%
    23:00 +21°C° 0 mm 0 mps 692 mmHg 88%

    Day after tomorrow, 3 June, Wednesday

    Time Temperature Precipitation Wind Pressure Humidity
    00:00 +20°C° 0 mm 0 mps 692 mmHg 90%
    01:00 +20°C° 0 mm 0 mps 691 mmHg 92%
    02:00 +19°C° 0 mm 0 mps 691 mmHg 94%
    03:00 +19°C° 0 mm 0 mps 691 mmHg 95%
    04:00 +18°C° 0 mm 0 mps 690 mmHg 97%
    05:00 +19°C° 0 mm 0 mps 691 mmHg 96%
    06:00 +21°C° 0 mm 1 mps 691 mmHg 94%
    07:00 +21°C° 0 mm 1 mps 692 mmHg 93%
    08:00 +24°C° 0 mm 1 mps 692 mmHg 80%
    09:00 +27°C° 0 mm 1 mps 693 mmHg 68%
    10:00 +29°C° 0 mm 1 mps 694 mmHg 56%
    11:00 +31°C° 0 mm 1 mps 693 mmHg 51%
    12:00 +32°C° 0 mm 1 mps 693 mmHg 45%
    13:00 +34°C° 0 mm 1 mps 693 mmHg 39%
    14:00 +33°C° 0 mm 1 mps 692 mmHg 42%
    15:00 +32°C° 0 mm 2 mps 691 mmHg 44%
    16:00 +31°C° 0 mm 2 mps 691 mmHg 47%
    17:00 +29°C° 0.3 mm 2 mps 691 mmHg 58%
    18:00 +26°C° 0.3 mm 2 mps 691 mmHg 70%
    19:00 +24°C° 0.3 mm 1 mps 691 mmHg 81%
    20:00 +23°C° 0 mm 1 mps 691 mmHg 84%
    21:00 +23°C° 0 mm 1 mps 692 mmHg 87%
    22:00 +20°C° 0 mm 0 mps 692 mmHg 91%
    23:00 +20°C° 0 mm 0 mps 692 mmHg 92%

    4 June, Thursday

    Time Temperature Precipitation Wind Pressure Humidity
    00:00 +19°C° 0 mm 0 mps 692 mmHg 94%
    01:00 +19°C° 0 mm 0 mps 691 mmHg 96%
    02:00 +21°C° 0 mm 1 mps 691 mmHg 96%
    03:00 +21°C° 0 mm 1 mps 691 mmHg 97%
    04:00 +20°C° 0 mm 1 mps 691 mmHg 97%
    05:00 +21°C° 0 mm 1 mps 691 mmHg 95%
    06:00 +21°C° 0 mm 1 mps 692 mmHg 92%
    07:00 +22°C° 0 mm 1 mps 692 mmHg 90%
    08:00 +24°C° 0 mm 1 mps 693 mmHg 78%
    09:00 +27°C° 0 mm 1 mps 693 mmHg 67%
    10:00 +30°C° 0 mm 1 mps 694 mmHg 56%
    11:00 +30°C° 0 mm 0 mps 693 mmHg 50%
    12:00 +31°C° 0 mm 0 mps 693 mmHg 45%
    13:00 +33°C° 0 mm 0 mps 693 mmHg 39%
    14:00 +33°C° 0 mm 1 mps 692 mmHg 44%
    15:00 +32°C° 0 mm 1 mps 691 mmHg 48%
    16:00 +30°C° 0 mm 1 mps 690 mmHg 53%
    17:00 +29°C° 0.5 mm 1 mps 690 mmHg 62%
    18:00 +27°C° 0.5 mm 1 mps 691 mmHg 70%
    19:00 +23°C° 0.5 mm 0 mps 691 mmHg 78%
    20:00 +22°C° 0.2 mm 0 mps 691 mmHg 82%
    21:00 +22°C° 0.2 mm 0 mps 692 mmHg 86%
    22:00 +21°C° 0.2 mm 0 mps 692 mmHg 90%
    23:00 +21°C° 0 mm 0 mps 692 mmHg 91%

    5 June, Friday

    Time Temperature Precipitation Wind Pressure Humidity
    00:00 +22°C° 0 mm 1 mps 692 mmHg 92%
    01:00 +22°C° 0 mm 1 mps 692 mmHg 94%
    02:00 +21°C° 0 mm 1 mps 691 mmHg 94%
    03:00 +21°C° 0 mm 1 mps 691 mmHg 94%
    04:00 +21°C° 0 mm 1 mps 691 mmHg 94%
    05:00 +21°C° 0 mm 1 mps 691 mmHg 92%
    06:00 +21°C° 0 mm 1 mps 692 mmHg 90%
    07:00 +22°C° 0 mm 1 mps 692 mmHg 88%
    08:00 +25°C° 0 mm 1 mps 693 mmHg 75%
    09:00 +28°C° 0 mm 1 mps 693 mmHg 62%
    10:00 +31°C° 0 mm 1 mps 694 mmHg 48%
    11:00 +32°C° 0 mm 1 mps 694 mmHg 43%
    12:00 +34°C° 0 mm 1 mps 693 mmHg 38%
    13:00 +36°C° 0 mm 1 mps 693 mmHg 33%
    14:00 +34°C° 0 mm 1 mps 692 mmHg 38%
    15:00 +33°C° 0 mm 1 mps 691 mmHg 43%
    16:00 +32°C° 0 mm 1 mps 691 mmHg 48%
    17:00 +30°C° 0 mm 1 mps 691 mmHg 54%
    18:00 +29°C° 0 mm 1 mps 691 mmHg 60%
    19:00 +25°C° 0 mm 0 mps 691 mmHg 66%
    20:00 +24°C° 0.3 mm 0 mps 692 mmHg 72%
    21:00 +23°C° 0.3 mm 0 mps 692 mmHg 79%
    22:00 +22°C° 0.3 mm 0 mps 692 mmHg 85%
    23:00 +23°C° 0 mm 1 mps 692 mmHg 88%

    6 June, Saturday

    Time Temperature Precipitation Wind Pressure Humidity
    00:00 +22°C° 0 mm 1 mps 692 mmHg 91%
    01:00 +22°C° 0 mm 1 mps 691 mmHg 93%
    02:00 +22°C° 0 mm 1 mps 691 mmHg 94%
    03:00 +21°C° 0 mm 1 mps 691 mmHg 96%
    04:00 +21°C° 0 mm 1 mps 691 mmHg 97%
    05:00 +21°C° 0 mm 1 mps 691 mmHg 94%
    06:00 +22°C° 0 mm 1 mps 692 mmHg 92%
    07:00 +22°C° 0 mm 1 mps 692 mmHg 89%
    08:00 +25°C° 0 mm 1 mps 693 mmHg 74%
    09:00 +28°C° 0 mm 1 mps 694 mmHg 59%
    10:00 +31°C° 0 mm 2 mps 694 mmHg 44%
    11:00 +32°C° 0 mm 2 mps 694 mmHg 38%
    12:00 +35°C° 0 mm 2 mps 693 mmHg 33%
    13:00 +36°C° 0 mm 2 mps 692 mmHg 27%
    14:00 +35°C° 0 mm 1 mps 692 mmHg 29%
    15:00 +34°C° 0 mm 1 mps 692 mmHg 30%
    16:00 +34°C° 0 mm 1 mps 691 mmHg 31%
    17:00 +31°C° 0 mm 1 mps 691 mmHg 38%
    18:00 +29°C° 0 mm 1 mps 691 mmHg 45%
    19:00 +26°C° 0 mm 1 mps 691 mmHg 52%
    20:00 +25°C° 0 mm 1 mps 692 mmHg 56%
    21:00 +23°C° 0 mm 0 mps 692 mmHg 60%
    22:00 +22°C° 0 mm 0 mps 692 mmHg 64%
    23:00 +21°C° 0 mm 0 mps 692 mmHg 70%
    Show more